Location: Unspecified
(49.9820°N, 20.4363°E)
Time: 22:11:02
(UTC+02:00)

ISS - Pass Details

Date: 18 July 2018
Orbit: 402 x 408 km, 51.6° (Epoch: 20 July)

Event Time Altitude Azimuth Distance (km) Brightness Sun altitude
Exits shadow 23:58:10 33° 244° (WSW) 706 -2.8 -18.4°
Maximum altitude 23:59:30 80° 162° (SSE) 417 -4.0 -18.4°
Drops below altitude 10° 00:02:48 10° 74° (ENE) 1,471 -0.9 -18.5°
Sets 00:04:53 0° 74° (ENE) 2,334 0.1 -18.6°
